Location: Lugrin
(46.4033°N, 6.6674°E)
Time: 09:11:32
(UTC+00:00)

N. Korean satellite - Pass Details

Date: 04 December 2020
Orbit: 453 x 502 km, 97.2° (Epoch: 16 January)

Event Time Altitude Azimuth Distance (km) Brightness Sun altitude
Rises 05:55:50 0° 1° (N) 2,572 10.0 -10.7°
Reaches altitude 10° 05:58:08 10° 348° (NNW) 1,694 9.0 -10.3°
Maximum altitude 06:01:10 25° 291° (WNW) 1,033 7.6 -9.8°
Drops below altitude 10° 06:04:13 10° 235° (SW) 1,700 9.0 -9.4°
Sets 06:06:32 0° 222° (SW) 2,583 10.1 -9.0°
